User: anonymous   Login
Location: Beccas
(43.4309°N, 0.1528°E)
Time: 17:57:19
(UTC+00:00)
Language:

Cosmos 1844 Rocket - Orbit

View from above orbital plane
View from above orbital plane
View from above satellite
View from above satellite

Ground track
Ground track

The orbit data is extracted from the following two-line orbital elements,

1 17974U 87041B   22020.93795222 -.00000258  00000-0 -10388-3 0  9993
2 17974  71.0094 332.7448 0014490 340.1730  75.9342 14.17283733794298
Epoch (UTC): 20 January 2022 22:30:39
Eccentricity: 0.0014490
inclination: 71.0094°
perigee height: 824 km
apogee height: 845 km
right ascension of ascending node: 332.7448°
argument of perigee: 340.1730°
revolutions per day: 14.17283733
mean anomaly at epoch: 75.9342°
orbit number at epoch: 79429

The dashed part of the orbit path shows where the satellite is in the earth's shadow,  

DLR